Location: Unspecified
(35.6961°N, 0.0000°E)
Time: 09:13:51
(UTC+00:00)

S-56A Canister/Altair - Pass Details

Date: 30 May 2019
Orbit: 633 x 2499 km, 38.9° (Epoch: 23 June)

Event Time Altitude Azimuth Distance (km) Brightness Sun altitude
Rises 04:39:04 0° 288° (WNW) 3,907 10.7 -2.1°
Reaches altitude 10° 04:41:26 10° 284° (WNW) 3,151 10.2 -1.7°
Maximum altitude 04:49:19 59° 207° (SSW) 1,802 9.2 -0.3°
Drops below altitude 10° 05:01:11 10° 132° (SE) 4,624 11.8 1.9°
Sets 05:05:26 0° 129° (SE) 5,839 12.4 2.6°
